Language selection

Weather shortcuts

Hecate Strait - northern half: Past 24 Hour Conditions

 

North Nomad - 46184

02:00 AM PDT 20 April 2026Buoy position: 53.9N 138.85W
Disclaimer

This table is a summary of hourly weather conditions for the past 24 hours.
Please note that these observations might not always be representative of weather conditions over their associated marine area.

Date / Time
(PDT)
Wind(knots) Wave height(m) Wave period(s) Pressure(kPa) Air tempC) Water tempC)
20 April 2026
2:00 W 13 gusts 16 1.86 8.0 101.9 6 6
1:00 W 11 gusts 14 1.70 10.0 102.0 6 6
0:00 W 10 gusts 12 1.79 10.5 102.0 5 6
19 April 2026
23:00 WNW 12 gusts 15 1.86 8.0 102.0 5 6
22:00 WNW 10 gusts 13 1.70 8.7 102.0 5 6
21:00 NW 8 gusts 12 2.00 8.3 101.9 5 6
20:00 NW 10 gusts 12 1.76 8.0 101.9 6 6
19:00 NNW 8 gusts 11 1.75 8.0 101.9 6 6
18:00 NNW 9 gusts 12 1.82 8.7 101.9 6 6
17:00 N 9 gusts 12 1.76 7.7 102.0 6 6
16:00 N 8 gusts 11 1.93 8.0 102.0 6 6
15:00 N 9 gusts 12 1.92 8.7 101.9 6 6
14:00 NNE 11 gusts 14 1.94 7.7 101.9 6 6
13:00 N 12 gusts 15 2.22 9.1 101.9 6 6
12:00 N 14 gusts 18 1.99 9.5 101.8 6 5
11:00 NNE 17 gusts 21 2.12 7.4 101.8 6 5
10:00 NNE 16 gusts 20 2.33 9.1 101.7 6 5
9:00 N 19 gusts 23 2.48 7.7 101.7 5 5
8:00 N 19 gusts 24 2.62 8.0 101.6 6 5
7:00 NNE 21 gusts 26 2.47 7.7 101.5 6 6
6:00 N 22 gusts 26 2.38 7.4 101.4 6 6
5:00 N 21 gusts 25 2.56 9.1 101.4 6 6
4:00 N 20 gusts 26 2.73 9.1 101.2 6 6
3:00 N 22 gusts 26 2.56 9.1 101.1 6 6
2:00 NNE 21 gusts 25 2.33 8.3 101.1 6 6

Zoom-in to make a selection

Map of Pacific - North Coast marine weather areas Masset Municipal Airport South Moresby - 46147 Bonilla Island Bella Coola Airport North Hecate Strait - 46183 Bella Bella Airport North Nomad - 46184 Sandspit Airport South Hecate Strait - 46185 Rose Spit Nanakwa Shoal - 46181 Langara Island Kindakun Rocks West Sea Otter - 46204 Cape St.James West Dixon Entrance - 46205 Sartine Island West Moresby - 46208 East Dellwood - 46207 Middle Nomad - 46004 South Nomad - 46036 Cathedral Point Prince Rupert Airport Lucy Islands Lightstation Holland Rock Dixon Entrance Central - 46145 Grey Islet Cumshewa Island
Legend:
buoy Buoy
land station Land Station

Pacific - North Coast Area

Another Region

Features

Colour-coded weather alerts

Learn more about weather alerting in Canada

Date modified: